Погода в Сент-Остелле

Великобритания     50°20′14″N   4°47′21″W
темп.,
°C
ветер,
м/с
пор.,
м/с
влажн.,
%
обл.,
%
осадки,
мм/ч
давл.,
гПа
погр.,
м
22 апреля, чт
чт2201:00+9в1115800 0.0 1022729
04:00+8в1114790 0.0 1022544
07:00+7в1113800 0.0 1023564
10:00+9в1213782 0.0 1024617
13:00+10в1113740 0.0 1025630
16:00+10в1112690 0.0 1024552
19:00+9в1013690 0.0 1024532
22:00+9в1015720 0.0 1025484
23 апреля, пт
пт2301:00+9в1015800 0.0 1024473
04:00+9в1115860 0.0 1023496
07:00+9в11158650 0.0 1024493
10:00+10в1215825 0.0 1024585
13:00+10в1215785 0.0 1024592
16:00+10в12157721 0.0 1023574
19:00+10в111477100 0.0 1023439
22:00+10в111675100 0.0 1023431
24 апреля, сб
сб2401:00+10в11167999 0.0 1023451
04:00+9в11168438 0.0 1022445
07:00+9в111584100 0.0 1022484
10:00+10в12158294 0.0 1023578
13:00+11в12157598 0.0 1023609
16:00+11в11157284 0.0 1023650
19:00+11в1116708 0.0 1024580
22:00+10в11177244 0.0 1025556
25 апреля, вс
вс2501:00+9в111675100 0.0 1025543
04:00+8в111576100 0.0 1025521
07:00+7в11147980 0.0 1025544
10:00+8в12147852 0.0 1025613
13:00+10в1114725 0.0 1025750
16:00+11в1013673 0.0 1023822
19:00+11в8127737 0.0 1023685
22:00+9всв6118246 0.0 1023510
26 апреля, пн
пн2601:00+8всв813835 0.0 1022502
04:00+6всв711770 0.0 1021426
07:00+5всв710710 0.0 1020346
10:00+8всв68555 0.0 1020479
13:00+11в56489 0.0 1018715
16:00+11вюв335382 0.0 1016511
19:00+11сз2466100 0.0 1014196
22:00+7с347331 0.0 101486